Zurück zum Katalog

COSMOS 2251 DEB

AktivLEO
NORAD 37101·DEBRIS·🇷🇺 Russia

Gestartet Jun 16, 1993 von Plesetsk Cosmodrome

Loading…

Nächste Überflüge (nächste 24 Stunden)

TLE

AktuellSource: Space-Track

Epoche: Sep 14, 2026, 10:49 UTC

1 37101U 93036BFX 26257.45088754  .00003007  00000-0  52400-3 0  9990
2 37101  74.0295 281.9222 0045448 296.5608  63.0906 14.67827215697142

Verfolge COSMOS 2251 DEB in Echtzeit mit AllMySat

Download on the App Store